Location: Stuttgart
(48.8069°N, 9.1544°E)
Time: 00:12:46
(UTC+02:00)

Envisat - Visible Passes

Search period start: 24 May 2018 00:00
Search period end: 03 June 2018 00:00
Orbit: 764 x 766 km, 98.2° (Epoch: 23 May)

Date Brightness Start Highest point End Pass type
(mag) Time Alt. Az. Time Alt. Az. Time Alt. Az.
24 May 6.1 22:28:05 10° W 22:28:38 10° W 22:29:12 10° WNW visible
25 May 5.4 21:47:31 10° SW 21:51:24 22° W 21:55:17 10° NW visible
27 May 5.8 22:15:00 10° WSW 22:17:19 13° W 22:19:38 10° WNW visible
30 May 5.6 22:02:52 10° SW 22:06:00 16° W 22:09:08 10° NW visible
